DW2973 Weather Reports


time (UTC)temp
F
wind
direction
speed
knots
gust
knots
rain 1hr
in
rain 24hr
in
rain mn
in
humidity
%
barometer
mb
20221207230010 29 146 0.0 0.0 0.00 0.00 0.00 81 1005.1
20221207224512 29 146 0.0 0.0 0.00 0.00 0.09 81 1005.2
20221207223013 29 146 0.0 0.0 0.00 0.00 0.09 81 1005.4
20221207221508 29 159 0.9 0.0 0.00 0.00 0.09 81 1005.3
20221207220008 29 165 0.0 0.0 0.00 0.00 0.09 81 1005.3
20221207214506 29 123 0.9 0.0 0.00 0.00 0.09 81 1005.1
20221207213005 29 178 0.9 0.0 0.00 0.00 0.09 82 1005.1
20221207211504 29 148 0.9 0.0 0.00 0.00 0.09 81 1005.0
20221207210004 29 144 0.9 0.0 0.00 0.00 0.09 83 1005.2
20221207204503 29 198 0.9 0.0 0.00 0.00 0.09 83 1005.3
20221207203100 29 165 0.9 0.0 0.00 0.00 0.09 83 1005.2
20221207201603 30 150 0.9 0.0 0.00 0.00 0.09 83 1005.2
20221207200105 30 142 1.7 0.0 0.00 0.00 0.09 83 1005.4
20221207194605 30 355 0.0 0.0 0.00 0.00 0.09 82 1005.4
20221207193101 30 355 0.0 0.0 0.00 0.00 0.09 81 1005.4
20221207191556 30 355 0.0 0.0 0.00 0.00 0.09 81 1005.5
20221207190054 31 15 0.9 0.0 0.00 0.00 0.09 80 1005.4
20221207184554 31 355 0.9 0.0 0.00 0.00 0.09 81 1005.5
20221207183057 31 36 0.0 0.0 0.00 0.00 0.09 84 1005.5
20221207181606 31 5 0.0 0.0 0.00 0.00 0.09 83 1005.5
20221207180057 31 360 0.9 0.0 0.00 0.00 0.09 83 1005.6
20221207174551 31 9 1.7 0.0 0.00 0.00 0.09 82 1005.5
20221207173054 31 360 0.9 0.0 0.00 0.00 0.09 82 1005.6
20221207171547 31 29 1.7 0.0 0.00 0.00 0.09 82 1005.6
20221207170045 32 333 2.6 0.0 0.00 0.00 0.09 85 1005.5
20221207164552 32 360 0.9 0.0 0.00 0.00 0.09 87 1005.5
20221207163044 32 42 0.9 0.0 0.00 0.00 0.09 87 1005.5
20221207161542 31 17 0.9 0.0 0.00 0.00 0.09 87 1005.6
20221207160043 31 36 0.9 0.0 0.00 0.00 0.09 87 1005.5
20221207154602 31 18 0.9 0.0 0.00 0.00 0.08 88 1005.4
20221207153039 31 11 0.9 0.0 0.00 0.00 0.08 88 1005.3
20221207151539 31 5 1.7 0.0 0.00 0.00 0.08 89 1005.4
20221207150043 31 28 1.7 0.0 0.00 0.00 0.08 89 1005.2
20221207144531 32 37 1.7 0.0 0.00 0.00 0.08 90 1005.4
20221207143029 32 5 1.7 0.0 0.00 0.00 0.07 90 1005.4
20221207141527 32 360 1.7 0.0 0.00 0.00 0.07 91 1005.5
20221207140030 32 5 0.9 0.0 0.00 0.00 0.07 90 1005.4
20221207134527 32 9 0.9 0.0 0.00 0.00 0.07 90 1005.4
20221207133022 32 13 0.9 0.0 0.00 0.00 0.06 90 1005.2
20221207131521 32 17 0.9 0.0 0.00 0.00 0.06 89 1005.2
20221207130027 32 23 0.9 0.0 0.00 0.00 0.06 89 1005.2
20221207124514 32 18 0.0 0.0 0.00 0.00 0.06 89 1005.2
20221207123011 33 71 0.0 0.0 0.00 0.00 0.06 89 1005.1
20221207121511 33 91 0.0 0.0 0.00 0.00 0.06 89 1005.1
20221207120013 33 92 0.0 0.0 0.00 0.00 0.05 89 1005.0
20221207114508 33 90 0.0 0.0 0.00 0.00 0.05 89 1004.8
20221207113012 33 89 0.0 0.0 0.00 0.00 0.04 89 1004.9
20221207111506 33 80 0.0 0.0 0.00 0.00 0.04 89 1004.9
20221207110015 33 80 0.0 0.0 0.00 0.00 0.04 89 1004.9
20221207104504 33 96 0.0 0.0 0.00 0.00 0.04 89 1005.1
20221207103002 33 95 0.0 0.0 0.00 0.00 0.04 89 1005.0
20221207101502 33 96 0.0 0.0 0.00 0.00 0.04 89 1005.0
20221207100001 33 345 0.0 0.0 0.00 0.00 0.04 89 1005.0
20221207094620 33 345 0.0 0.0 0.00 0.00 0.04 89 1005.2
20221207093121 33 342 0.0 0.0 0.00 0.00 0.04 89 1005.2
20221207091558 33 342 0.0 0.0 0.00 0.00 0.04 89 1005.3
20221207090057 33 342 0.0 0.0 0.00 0.00 0.04 89 1005.3
20221207084605 33 342 0.0 0.0 0.00 0.00 0.04 89 1005.2
20221207083101 33 342 0.0 0.0 0.00 0.00 0.04 89 1005.2
20221207081557 33 342 0.0 0.0 0.00 0.00 0.04 88 1005.1
20221207080052 33 342 0.0 0.0 0.00 0.00 0.04 88 1005.3
20221207074550 34 342 0.0 0.0 0.00 0.00 0.04 88 1005.4
20221207073103 35 342 0.0 0.0 0.00 0.00 0.04 88 1005.4
20221207071546 35 342 0.0 0.0 0.00 0.00 0.03 88 1005.2
20221207070047 35 342 0.0 0.0 0.00 0.00 0.03 88 1005.2
20221207064548 35 342 0.0 0.0 0.00 0.00 0.02 88 1005.2
20221207063044 35 342 0.0 0.0 0.00 0.00 0.02 88 1005.4
20221207061542 35 342 0.0 0.0 0.00 0.00 0.02 88 1005.4
20221207060049 35 342 0.0 0.0 0.00 0.00 0.01 87 1005.6
20221207054540 36 342 0.0 0.0 0.00 0.00 0.01 87 1005.6
20221207053043 36 342 0.0 0.0 0.00 0.00 0.01 87 1005.6
20221207051538 36 342 0.0 0.0 0.00 0.00 0.01 87 1005.8
20221207050036 36 342 0.0 0.0 0.00 0.00 0.01 86 1006.1
20221207044538 37 5 0.0 0.0 0.00 0.00 0.01 85 1006.2
20221207043033 37 9 0.0 0.0 0.00 0.00 0.00 83 1006.2
20221207041539 37 9 0.0 0.0 0.00 0.00 0.00 82 1006.3
20221207040029 36 9 0.0 0.0 0.00 0.00 0.00 81 1006.4
20221207034531 36 9 0.0 0.0 0.00 0.00 0.00 80 1006.5
20221207033028 37 9 0.0 0.0 0.00 0.00 0.00 79 1006.5
20221207031532 37 9 0.0 0.0 0.00 0.00 0.00 79 1006.7
20221207030022 37 9 0.0 0.0 0.00 0.00 0.00 79 1007.0
20221207024520 37 9 0.0 0.0 0.00 0.00 0.00 79 1007.1
20221207023019 37 11 0.0 0.0 0.00 0.00 0.00 79 1007.2
20221207021519 37 11 0.0 0.0 0.00 0.00 0.00 81 1007.4
20221207020015 37 13 0.9 0.0 0.00 0.00 0.00 81 1007.6
20221207014512 37 340 0.0 0.0 0.00 0.00 0.00 80 1007.7
20221207013012 37 355 0.0 0.0 0.00 0.00 0.00 79 1007.8
20221207011509 37 17 0.0 0.0 0.00 0.00 0.00 78 1007.9
20221207010008 37 342 0.0 0.0 0.00 0.00 0.00 78 1008.2
20221207004505 37 343 0.0 0.0 0.00 0.00 0.00 78 1008.3
20221207003004 37 5 0.0 0.0 0.00 0.00 0.00 79 1008.3
20221207001503 37 314 0.0 0.0 0.00 0.00 0.00 81 1008.5
20221207000100 37 313 0.0 0.0 0.00 0.00 0.00 81 1008.7
20221206234604 37 314 0.0 0.0 0.00 0.00 0.00 82 1008.7
20221206233058 37 311 0.0 0.0 0.00 0.00 0.00 81 1008.8
20221206231602 37 313 0.0 0.0 0.00 0.00 0.00 80 1009.1